This is the latest recevied weather packets stored in our database for station/object 9D9-WX. If no packets are shown the sender has not sent any weather packets the latest 10 day(s).
| Time | Temp. | Humidity | Pressure | Rain* | Wind** | Luminosity | Snow |
|---|---|---|---|---|---|---|---|
| 1777840227 | 15° C | 51% | 982.4 hPa | 0 mm | - | - | - |
| 1777839309 | 14.44° C | 51% | 982.3 hPa | 0 mm | - | - | - |
| 1777838432 | 14.44° C | 51% | 982.3 hPa | 0 mm | - | - | - |
| 1777837509 | 13.89° C | 51% | 982.8 hPa | 0 mm | - | - | - |
| 1777836628 | 14.44° C | 51% | 982.8 hPa | 0 mm | - | - | - |
| 1777835710 | 14.44° C | 51% | 982.8 hPa | 0 mm | - | - | - |
| 1777834832 | 14.44° C | 51% | 982.8 hPa | 0 mm | - | - | - |
| 1777833910 | 15° C | 46% | 983.6 hPa | 0 mm | - | - | - |
| 1777833318 | 15° C | 47% | 983.6 hPa | 0 mm | - | - | - |
| 1777832110 | 15.56° C | 47% | 983.9 hPa | 0 mm | - | - | - |
| 1777831228 | 15° C | 47% | 983.9 hPa | 0 mm | - | - | - |
| 1777830308 | 15° C | 47% | 984.3 hPa | 0 mm | - | - | - |
| 1777829423 | 15° C | 44% | 983.6 hPa | 0 mm | - | - | - |
| 1777827628 | 15° C | 44% | 983.6 hPa | 0 mm | - | - | - |
| 1777826710 | 14.44° C | 50% | 984.1 hPa | 0 mm | - | - | - |
| 1777825823 | 13.89° C | 50% | 983.2 hPa | 0 mm | - | - | - |
| 1777824909 | 13.89° C | 50% | 983.2 hPa | 0 mm | - | - | - |
| 1777824035 | 13.33° C | 50% | 983.2 hPa | 0 mm | - | - | - |
| 1777823109 | 13.33° C | 52% | 984.5 hPa | 0 mm | - | - | - |
| 1777822222 | 12.78° C | 56% | 984.2 hPa | 0 mm | - | - | - |
| 1777821309 | 12.22° C | 56% | 984.1 hPa | 0 mm | - | - | - |
| 1777820433 | 11.67° C | 56% | 984.1 hPa | 0 mm | - | - | - |
| 1777819510 | 11.11° C | 56% | 984.1 hPa | 0 mm | - | - | - |
| 1777818629 | 11.11° C | 57% | 984.2 hPa | 0 mm | - | - | - |
| 1777817710 | 10.56° C | 57% | 984.2 hPa | 0 mm | - | - | - |
* Rain latest hour (hover to see other rain measurements)
** Current wind speed in m/s (hover to see current wind gust speed)